owner,sensor,date,latitude,longitude,vertical_datum,wind_speed,wind_to_direction,wind_speed_of_gust,qcFlag 
DISL,ioos:station:DISL:MHPA:1,2015-05-01T00:00:00Z,30.6671,-87.9365,8.5,3.63,166.2,-9999.0,'1111122,1111122,1111122' 
DISL,ioos:station:DISL:MHPA:1,2015-05-01T00:30:00Z,30.6671,-87.9365,8.5,3.43,158.0,-9999.0,'1111122,1111122,1111122' 
DISL,ioos:station:DISL:MHPA:1,2015-05-01T01:00:00Z,30.6671,-87.9365,8.5,2.51,140.2,-9999.0,'1111122,1111122,1111122' 
DISL,ioos:station:DISL:MHPA:1,2015-05-01T01:30:00Z,30.6671,-87.9365,8.5,1.03,119.9,-9999.0,'1111122,1111122,1111122' 
DISL,ioos:station:DISL:MHPA:1,2015-05-01T02:00:00Z,30.6671,-87.9365,8.5,0.72,114.1,-9999.0,'1111122,1111122,1111122' 
DISL,ioos:station:DISL:MHPA:1,2015-05-01T02:30:00Z,30.6671,-87.9365,8.5,1.16,104.5,-9999.0,'1111122,1111122,1111122' 
DISL,ioos:station:DISL:MHPA:1,2015-05-01T03:00:00Z,30.6671,-87.9365,8.5,1.21,110.7,-9999.0,'1111122,1111122,1111122' 
DISL,ioos:station:DISL:MHPA:1,2015-05-01T03:30:00Z,30.6671,-87.9365,8.5,0.62,111.6,-9999.0,'1111122,1111122,1111122' 
DISL,ioos:station:DISL:MHPA:1,2015-05-01T04:00:00Z,30.6671,-87.9365,8.5,0.22,117.1,-9999.0,'1111122,1111122,1111122' 
DISL,ioos:station:DISL:MHPA:1,2015-05-01T04:30:00Z,30.6671,-87.9365,8.5,0.48,89.7,-9999.0,'1111122,1111122,1111122' 
DISL,ioos:station:DISL:MHPA:1,2015-05-01T05:00:00Z,30.6671,-87.9365,8.5,0.72,32.87,-9999.0,'1111122,1111122,1111122' 
DISL,ioos:station:DISL:MHPA:1,2015-05-01T05:30:00Z,30.6671,-87.9365,8.5,0.51,66.19,-9999.0,'1111122,1111122,1111122' 
DISL,ioos:station:DISL:MHPA:1,2015-05-01T06:00:00Z,30.6671,-87.9365,8.5,0.15,101.9,-9999.0,'1111122,1111122,1111122' 
DISL,ioos:station:DISL:MHPA:1,2015-05-01T06:30:00Z,30.6671,-87.9365,8.5,0.4,64.74,-9999.0,'1111122,1111122,1111122' 
DISL,ioos:station:DISL:MHPA:1,2015-05-01T07:00:00Z,30.6671,-87.9365,8.5,0.52,66.9,-9999.0,'1111122,1111122,1111122' 
DISL,ioos:station:DISL:MHPA:1,2015-05-01T07:30:00Z,30.6671,-87.9365,8.5,0.41,303.1,-9999.0,'1111122,1111122,1111122' 
DISL,ioos:station:DISL:MHPA:1,2015-05-01T08:00:00Z,30.6671,-87.9365,8.5,0.07,36.6,-9999.0,'1111122,1111122,1111122' 
DISL,ioos:station:DISL:MHPA:1,2015-05-01T08:30:00Z,30.6671,-87.9365,8.5,0.75,24.89,-9999.0,'1111122,1111122,1111122' 
DISL,ioos:station:DISL:MHPA:1,2015-05-01T09:00:00Z,30.6671,-87.9365,8.5,0.78,343.0,-9999.0,'1111122,1111122,1111122' 
DISL,ioos:station:DISL:MHPA:1,2015-05-01T09:30:00Z,30.6671,-87.9365,8.5,0.16,8.43,-9999.0,'1111122,1111122,1111122' 
DISL,ioos:station:DISL:MHPA:1,2015-05-01T10:00:00Z,30.6671,-87.9365,8.5,0.89,6.863,-9999.0,'1111122,1111122,1111122' 
DISL,ioos:station:DISL:MHPA:1,2015-05-01T10:30:00Z,30.6671,-87.9365,8.5,0.88,11.2,-9999.0,'1111122,1111122,1111122' 
DISL,ioos:station:DISL:MHPA:1,2015-05-01T11:00:00Z,30.6671,-87.9365,8.5,1.61,351.7,-9999.0,'1111122,1111122,1111122' 
DISL,ioos:station:DISL:MHPA:1,2015-05-01T11:30:00Z,30.6671,-87.9365,8.5,2.19,350.6,-9999.0,'1111122,1111122,1111122' 
DISL,ioos:station:DISL:MHPA:1,2015-05-01T12:00:00Z,30.6671,-87.9365,8.5,2.73,348.0,-9999.0,'1111122,1111122,1111122' 
DISL,ioos:station:DISL:MHPA:1,2015-05-01T12:30:00Z,30.6671,-87.9365,8.5,2.0,15.47,-9999.0,'1111122,1111122,1111122' 
DISL,ioos:station:DISL:MHPA:1,2015-05-01T13:00:00Z,30.6671,-87.9365,8.5,2.24,5.48,-9999.0,'1111122,1111122,1111122' 
DISL,ioos:station:DISL:MHPA:1,2015-05-01T13:30:00Z,30.6671,-87.9365,8.5,2.22,14.15,-9999.0,'1111122,1111122,1111122' 
DISL,ioos:station:DISL:MHPA:1,2015-05-01T14:00:00Z,30.6671,-87.9365,8.5,2.97,18.23,-9999.0,'1111122,1111122,1111122' 
DISL,ioos:station:DISL:MHPA:1,2015-05-01T14:30:00Z,30.6671,-87.9365,8.5,3.76,13.75,-9999.0,'1111122,1111122,1111122' 
DISL,ioos:station:DISL:MHPA:1,2015-05-01T15:00:00Z,30.6671,-87.9365,8.5,3.06,21.87,-9999.0,'1111122,1111122,1111122' 
DISL,ioos:station:DISL:MHPA:1,2015-05-01T15:30:00Z,30.6671,-87.9365,8.5,3.12,20.38,-9999.0,'1111122,1111122,1111122' 
DISL,ioos:station:DISL:MHPA:1,2015-05-01T16:00:00Z,30.6671,-87.9365,8.5,2.29,15.82,-9999.0,'1111122,1111122,1111122' 
DISL,ioos:station:DISL:MHPA:1,2015-05-01T16:30:00Z,30.6671,-87.9365,8.5,2.75,326.4,-9999.0,'1111122,1111122,1111122' 
DISL,ioos:station:DISL:MHPA:1,2015-05-01T17:00:00Z,30.6671,-87.9365,8.5,3.15,332.2,-9999.0,'1111122,1111122,1111122' 
DISL,ioos:station:DISL:MHPA:1,2015-05-01T17:30:00Z,30.6671,-87.9365,8.5,3.26,331.9,-9999.0,'1111122,1111122,1111122' 
DISL,ioos:station:DISL:MHPA:1,2015-05-01T18:00:00Z,30.6671,-87.9365,8.5,2.81,329.2,-9999.0,'1111122,1111122,1111122' 
DISL,ioos:station:DISL:MHPA:1,2015-05-01T18:30:00Z,30.6671,-87.9365,8.5,3.24,330.1,-9999.0,'1111122,1111122,1111122' 
DISL,ioos:station:DISL:MHPA:1,2015-05-01T19:00:00Z,30.6671,-87.9365,8.5,2.99,339.5,-9999.0,'1111122,1111122,1111122' 
DISL,ioos:station:DISL:MHPA:1,2015-05-01T19:30:00Z,30.6671,-87.9365,8.5,2.53,329.6,-9999.0,'1111122,1111122,1111122' 
DISL,ioos:station:DISL:MHPA:1,2015-05-01T20:00:00Z,30.6671,-87.9365,8.5,2.24,341.0,-9999.0,'1111122,1111122,1111122' 
DISL,ioos:station:DISL:MHPA:1,2015-05-01T20:30:00Z,30.6671,-87.9365,8.5,2.18,327.9,-9999.0,'1111122,1111122,1111122' 
DISL,ioos:station:DISL:MHPA:1,2015-05-01T21:00:00Z,30.6671,-87.9365,8.5,3.51,348.5,-9999.0,'1111122,1111122,1111122' 
DISL,ioos:station:DISL:MHPA:1,2015-05-01T21:30:00Z,30.6671,-87.9365,8.5,4.1,352.6,-9999.0,'1111122,1111122,1111122' 
DISL,ioos:station:DISL:MHPA:1,2015-05-01T22:00:00Z,30.6671,-87.9365,8.5,3.28,353.8,-9999.0,'1111122,1111122,1111122' 
DISL,ioos:station:DISL:MHPA:1,2015-05-01T22:30:00Z,30.6671,-87.9365,8.5,3.32,356.6,-9999.0,'1111122,1111122,1111122' 
DISL,ioos:station:DISL:MHPA:1,2015-05-01T23:00:00Z,30.6671,-87.9365,8.5,3.28,3.45,-9999.0,'1111122,1111122,1111122' 
DISL,ioos:station:DISL:MHPA:1,2015-05-01T23:30:00Z,30.6671,-87.9365,8.5,2.5,1.204,-9999.0,'1111122,1111122,1111122' 
DISL,ioos:station:DISL:MHPA:1,2015-05-02T00:00:00Z,30.6671,-87.9365,8.5,2.16,18.34,-9999.0,'1111122,1111122,1111122' 
DISL,ioos:station:DISL:MHPA:1,2015-05-02T00:30:00Z,30.6671,-87.9365,8.5,1.28,6.029,-9999.0,'1111122,1111122,1111122' 
DISL,ioos:station:DISL:MHPA:1,2015-05-02T01:00:00Z,30.6671,-87.9365,8.5,0.84,10.16,-9999.0,'1111122,1111122,1111122' 
DISL,ioos:station:DISL:MHPA:1,2015-05-02T01:30:00Z,30.6671,-87.9365,8.5,1.07,21.46,-9999.0,'1111122,1111122,1111122' 
DISL,ioos:station:DISL:MHPA:1,2015-05-02T02:00:00Z,30.6671,-87.9365,8.5,2.1,22.42,-9999.0,'1111122,1111122,1111122' 
DISL,ioos:station:DISL:MHPA:1,2015-05-02T02:30:00Z,30.6671,-87.9365,8.5,2.15,28.05,-9999.0,'1111122,1111122,1111122' 
DISL,ioos:station:DISL:MHPA:1,2015-05-02T03:00:00Z,30.6671,-87.9365,8.5,2.31,26.6,-9999.0,'1111122,1111122,1111122' 
DISL,ioos:station:DISL:MHPA:1,2015-05-02T03:30:00Z,30.6671,-87.9365,8.5,2.35,25.17,-9999.0,'1111122,1111122,1111122' 
DISL,ioos:station:DISL:MHPA:1,2015-05-02T04:00:00Z,30.6671,-87.9365,8.5,1.74,27.69,-9999.0,'1111122,1111122,1111122' 
DISL,ioos:station:DISL:MHPA:1,2015-05-02T04:30:00Z,30.6671,-87.9365,8.5,1.81,24.65,-9999.0,'1111122,1111122,1111122' 
DISL,ioos:station:DISL:MHPA:1,2015-05-02T05:00:00Z,30.6671,-87.9365,8.5,1.67,21.8,-9999.0,'1111122,1111122,1111122' 
DISL,ioos:station:DISL:MHPA:1,2015-05-02T05:30:00Z,30.6671,-87.9365,8.5,1.74,24.68,-9999.0,'1111122,1111122,1111122' 
DISL,ioos:station:DISL:MHPA:1,2015-05-02T06:00:00Z,30.6671,-87.9365,8.5,1.15,3.177,-9999.0,'1111122,1111122,1111122' 
DISL,ioos:station:DISL:MHPA:1,2015-05-02T06:30:00Z,30.6671,-87.9365,8.5,1.19,9.67,-9999.0,'1111122,1111122,1111122' 
DISL,ioos:station:DISL:MHPA:1,2015-05-02T07:00:00Z,30.6671,-87.9365,8.5,1.79,21.18,-9999.0,'1111122,1111122,1111122' 
DISL,ioos:station:DISL:MHPA:1,2015-05-02T07:30:00Z,30.6671,-87.9365,8.5,1.31,348.5,-9999.0,'1111122,1111122,1111122' 
DISL,ioos:station:DISL:MHPA:1,2015-05-02T08:00:00Z,30.6671,-87.9365,8.5,1.23,359.4,-9999.0,'1111122,1111122,1111122' 
DISL,ioos:station:DISL:MHPA:1,2015-05-02T08:30:00Z,30.6671,-87.9365,8.5,1.16,8.65,-9999.0,'1111122,1111122,1111122' 
DISL,ioos:station:DISL:MHPA:1,2015-05-02T09:00:00Z,30.6671,-87.9365,8.5,1.38,8.89,-9999.0,'1111122,1111122,1111122' 
DISL,ioos:station:DISL:MHPA:1,2015-05-02T09:30:00Z,30.6671,-87.9365,8.5,1.37,3.26,-9999.0,'1111122,1111122,1111122' 
DISL,ioos:station:DISL:MHPA:1,2015-05-02T10:00:00Z,30.6671,-87.9365,8.5,0.63,6.448,-9999.0,'1111122,1111122,1111122' 
DISL,ioos:station:DISL:MHPA:1,2015-05-02T10:30:00Z,30.6671,-87.9365,8.5,1.09,5.616,-9999.0,'1111122,1111122,1111122' 
DISL,ioos:station:DISL:MHPA:1,2015-05-02T11:00:00Z,30.6671,-87.9365,8.5,1.06,46.4,-9999.0,'1111122,1111122,1111122' 
DISL,ioos:station:DISL:MHPA:1,2015-05-02T11:30:00Z,30.6671,-87.9365,8.5,0.38,357.9,-9999.0,'1111122,1111122,1111122' 
DISL,ioos:station:DISL:MHPA:1,2015-05-02T12:00:00Z,30.6671,-87.9365,8.5,1.18,337.3,-9999.0,'1111122,1111122,1111122' 
DISL,ioos:station:DISL:MHPA:1,2015-05-02T12:30:00Z,30.6671,-87.9365,8.5,1.4,355.6,-9999.0,'1111122,1111122,1111122' 
DISL,ioos:station:DISL:MHPA:1,2015-05-02T13:00:00Z,30.6671,-87.9365,8.5,1.14,350.4,-9999.0,'1111122,1111122,1111122' 
DISL,ioos:station:DISL:MHPA:1,2015-05-02T13:30:00Z,30.6671,-87.9365,8.5,1.28,335.1,-9999.0,'1111122,1111122,1111122' 
DISL,ioos:station:DISL:MHPA:1,2015-05-02T14:00:00Z,30.6671,-87.9365,8.5,1.77,349.5,-9999.0,'1111122,1111122,1111122' 
DISL,ioos:station:DISL:MHPA:1,2015-05-02T14:30:00Z,30.6671,-87.9365,8.5,1.27,50.17,-9999.0,'1111122,1111122,1111122' 
DISL,ioos:station:DISL:MHPA:1,2015-05-02T15:00:00Z,30.6671,-87.9365,8.5,0.78,126.4,-9999.0,'1111122,1111122,1111122' 
DISL,ioos:station:DISL:MHPA:1,2015-05-02T15:30:00Z,30.6671,-87.9365,8.5,1.87,158.9,-9999.0,'1111122,1111122,1111122' 
DISL,ioos:station:DISL:MHPA:1,2015-05-02T16:00:00Z,30.6671,-87.9365,8.5,1.9,229.5,-9999.0,'1111122,1111122,1111122' 
DISL,ioos:station:DISL:MHPA:1,2015-05-02T16:30:00Z,30.6671,-87.9365,8.5,3.1,244.1,-9999.0,'1111122,1111122,1111122' 
DISL,ioos:station:DISL:MHPA:1,2015-05-02T17:00:00Z,30.6671,-87.9365,8.5,3.58,242.6,-9999.0,'1111122,1111122,1111122' 
DISL,ioos:station:DISL:MHPA:1,2015-05-02T17:30:00Z,30.6671,-87.9365,8.5,4.35,234.0,-9999.0,'1111122,1111122,1111122' 
DISL,ioos:station:DISL:MHPA:1,2015-05-02T18:00:00Z,30.6671,-87.9365,8.5,3.56,242.8,-9999.0,'1111122,1111122,1111122' 
DISL,ioos:station:DISL:MHPA:1,2015-05-02T18:30:00Z,30.6671,-87.9365,8.5,3.26,234.1,-9999.0,'1111122,1111122,1111122' 
DISL,ioos:station:DISL:MHPA:1,2015-05-02T19:00:00Z,30.6671,-87.9365,8.5,2.86,223.1,-9999.0,'1111122,1111122,1111122' 
DISL,ioos:station:DISL:MHPA:1,2015-05-02T19:30:00Z,30.6671,-87.9365,8.5,2.74,216.6,-9999.0,'1111122,1111122,1111122' 
DISL,ioos:station:DISL:MHPA:1,2015-05-02T20:00:00Z,30.6671,-87.9365,8.5,3.24,178.8,-9999.0,'1111122,1111122,1111122' 
DISL,ioos:station:DISL:MHPA:1,2015-05-02T20:30:00Z,30.6671,-87.9365,8.5,3.5,184.3,-9999.0,'1111122,1111122,1111122' 
DISL,ioos:station:DISL:MHPA:1,2015-05-02T21:00:00Z,30.6671,-87.9365,8.5,3.81,180.0,-9999.0,'1111122,1111122,1111122' 
DISL,ioos:station:DISL:MHPA:1,2015-05-02T21:30:00Z,30.6671,-87.9365,8.5,4.64,167.5,-9999.0,'1111122,1111122,1111122' 
DISL,ioos:station:DISL:MHPA:1,2015-05-02T22:00:00Z,30.6671,-87.9365,8.5,4.95,168.2,-9999.0,'1111122,1111122,1111122' 
DISL,ioos:station:DISL:MHPA:1,2015-05-02T22:30:00Z,30.6671,-87.9365,8.5,5.47,173.2,-9999.0,'1111122,1111122,1111122' 
DISL,ioos:station:DISL:MHPA:1,2015-05-02T23:00:00Z,30.6671,-87.9365,8.5,5.85,182.0,-9999.0,'1111122,1111122,1111122' 
DISL,ioos:station:DISL:MHPA:1,2015-05-02T23:30:00Z,30.6671,-87.9365,8.5,5.85,187.4,-9999.0,'1111122,1111122,1111122' 
DISL,ioos:station:DISL:MHPA:1,2015-05-03T00:00:00Z,30.6671,-87.9365,8.5,5.26,184.1,-9999.0,'1111122,1111122,1111122' 
DISL,ioos:station:DISL:MHPA:1,2015-05-03T00:30:00Z,30.6671,-87.9365,8.5,4.95,181.7,-9999.0,'1111122,1111122,1111122' 
DISL,ioos:station:DISL:MHPA:1,2015-05-03T01:00:00Z,30.6671,-87.9365,8.5,4.11,197.6,-9999.0,'1111122,1111122,1111122' 
DISL,ioos:station:DISL:MHPA:1,2015-05-03T01:30:00Z,30.6671,-87.9365,8.5,3.93,192.4,-9999.0,'1111122,1111122,1111122' 
DISL,ioos:station:DISL:MHPA:1,2015-05-03T02:00:00Z,30.6671,-87.9365,8.5,3.47,190.4,-9999.0,'1111122,1111122,1111122' 
DISL,ioos:station:DISL:MHPA:1,2015-05-03T02:30:00Z,30.6671,-87.9365,8.5,2.09,138.1,-9999.0,'1111122,1111122,1111122' 
DISL,ioos:station:DISL:MHPA:1,2015-05-03T03:00:00Z,30.6671,-87.9365,8.5,1.05,115.8,-9999.0,'1111122,1111122,1111122' 
DISL,ioos:station:DISL:MHPA:1,2015-05-03T03:30:00Z,30.6671,-87.9365,8.5,1.37,112.2,-9999.0,'1111122,1111122,1111122' 
DISL,ioos:station:DISL:MHPA:1,2015-05-03T04:00:00Z,30.6671,-87.9365,8.5,0.61,100.0,-9999.0,'1111122,1111122,1111122' 
DISL,ioos:station:DISL:MHPA:1,2015-05-03T04:30:00Z,30.6671,-87.9365,8.5,0.5,338.9,-9999.0,'1111122,1111122,1111122' 
DISL,ioos:station:DISL:MHPA:1,2015-05-03T05:00:00Z,30.6671,-87.9365,8.5,0.36,79.13,-9999.0,'1111122,1111122,1111122' 
DISL,ioos:station:DISL:MHPA:1,2015-05-03T05:30:00Z,30.6671,-87.9365,8.5,0.29,65.75,-9999.0,'1111122,1111122,1111122' 
DISL,ioos:station:DISL:MHPA:1,2015-05-03T06:00:00Z,30.6671,-87.9365,8.5,0.39,25.1,-9999.0,'1111122,1111122,1111122' 
DISL,ioos:station:DISL:MHPA:1,2015-05-03T06:30:00Z,30.6671,-87.9365,8.5,0.37,60.4,-9999.0,'1111122,1111122,1111122' 
DISL,ioos:station:DISL:MHPA:1,2015-05-03T07:00:00Z,30.6671,-87.9365,8.5,0.14,37.93,-9999.0,'1111122,1111122,1111122' 
DISL,ioos:station:DISL:MHPA:1,2015-05-03T07:30:00Z,30.6671,-87.9365,8.5,0.23,54.78,-9999.0,'1111122,1111122,1111122' 
DISL,ioos:station:DISL:MHPA:1,2015-05-03T08:00:00Z,30.6671,-87.9365,8.5,0.01,87.4,-9999.0,'1111122,1111122,1111122' 
DISL,ioos:station:DISL:MHPA:1,2015-05-03T08:30:00Z,30.6671,-87.9365,8.5,0.0,0.0,-9999.0,'1114422,1114422,1111122' 
DISL,ioos:station:DISL:MHPA:1,2015-05-03T09:00:00Z,30.6671,-87.9365,8.5,0.0,0.0,-9999.0,'1114422,1114422,1111122' 
DISL,ioos:station:DISL:MHPA:1,2015-05-03T09:30:00Z,30.6671,-87.9365,8.5,0.45,38.4,-9999.0,'1111122,1111122,1111122' 
DISL,ioos:station:DISL:MHPA:1,2015-05-03T10:00:00Z,30.6671,-87.9365,8.5,0.2,7.037,-9999.0,'1111122,1111122,1111122' 
DISL,ioos:station:DISL:MHPA:1,2015-05-03T10:30:00Z,30.6671,-87.9365,8.5,0.3,30.21,-9999.0,'1111122,1111122,1111122' 
DISL,ioos:station:DISL:MHPA:1,2015-05-03T11:00:00Z,30.6671,-87.9365,8.5,0.53,17.74,-9999.0,'1111122,1111122,1111122' 
DISL,ioos:station:DISL:MHPA:1,2015-05-03T11:30:00Z,30.6671,-87.9365,8.5,0.45,38.96,-9999.0,'1111122,1111122,1111122' 
DISL,ioos:station:DISL:MHPA:1,2015-05-03T12:00:00Z,30.6671,-87.9365,8.5,0.63,357.5,-9999.0,'1111122,1111122,1111122' 
DISL,ioos:station:DISL:MHPA:1,2015-05-03T12:30:00Z,30.6671,-87.9365,8.5,0.47,8.84,-9999.0,'1111122,1111122,1111122' 
DISL,ioos:station:DISL:MHPA:1,2015-05-03T13:00:00Z,30.6671,-87.9365,8.5,0.04,33.51,-9999.0,'1111122,1111122,1111122' 
DISL,ioos:station:DISL:MHPA:1,2015-05-03T13:30:00Z,30.6671,-87.9365,8.5,0.2,162.8,-9999.0,'1111122,1111122,1111122' 
DISL,ioos:station:DISL:MHPA:1,2015-05-03T14:00:00Z,30.6671,-87.9365,8.5,0.16,251.8,-9999.0,'1111122,1111122,1111122' 
DISL,ioos:station:DISL:MHPA:1,2015-05-03T14:30:00Z,30.6671,-87.9365,8.5,0.61,226.1,-9999.0,'1111122,1111122,1111122' 
DISL,ioos:station:DISL:MHPA:1,2015-05-03T15:00:00Z,30.6671,-87.9365,8.5,1.18,254.0,-9999.0,'1111122,1111122,1111122' 
DISL,ioos:station:DISL:MHPA:1,2015-05-03T15:30:00Z,30.6671,-87.9365,8.5,1.43,214.9,-9999.0,'1111122,1111122,1111122' 
DISL,ioos:station:DISL:MHPA:1,2015-05-03T16:00:00Z,30.6671,-87.9365,8.5,2.56,222.5,-9999.0,'1111122,1111122,1111122' 
DISL,ioos:station:DISL:MHPA:1,2015-05-03T16:30:00Z,30.6671,-87.9365,8.5,3.39,228.5,-9999.0,'1111122,1111122,1111122' 
DISL,ioos:station:DISL:MHPA:1,2015-05-03T17:00:00Z,30.6671,-87.9365,8.5,4.19,212.6,-9999.0,'1111122,1111122,1111122' 
DISL,ioos:station:DISL:MHPA:1,2015-05-03T17:30:00Z,30.6671,-87.9365,8.5,4.71,200.5,-9999.0,'1111122,1111122,1111122' 
DISL,ioos:station:DISL:MHPA:1,2015-05-03T18:00:00Z,30.6671,-87.9365,8.5,5.53,196.9,-9999.0,'1111122,1111122,1111122' 
DISL,ioos:station:DISL:MHPA:1,2015-05-03T18:30:00Z,30.6671,-87.9365,8.5,5.67,202.0,-9999.0,'1111122,1111122,1111122' 
DISL,ioos:station:DISL:MHPA:1,2015-05-03T19:00:00Z,30.6671,-87.9365,8.5,6.11,202.3,-9999.0,'1111122,1111122,1111122' 
DISL,ioos:station:DISL:MHPA:1,2015-05-03T19:30:00Z,30.6671,-87.9365,8.5,6.4,200.8,-9999.0,'1111122,1111122,1111122' 
DISL,ioos:station:DISL:MHPA:1,2015-05-03T20:00:00Z,30.6671,-87.9365,8.5,6.32,198.5,-9999.0,'1111122,1111122,1111122' 
DISL,ioos:station:DISL:MHPA:1,2015-05-03T20:30:00Z,30.6671,-87.9365,8.5,6.24,197.3,-9999.0,'1111122,1111122,1111122' 
DISL,ioos:station:DISL:MHPA:1,2015-05-03T21:00:00Z,30.6671,-87.9365,8.5,6.03,201.6,-9999.0,'1111122,1111122,1111122' 
DISL,ioos:station:DISL:MHPA:1,2015-05-03T21:30:00Z,30.6671,-87.9365,8.5,5.44,202.8,-9999.0,'1111122,1111122,1111122' 
DISL,ioos:station:DISL:MHPA:1,2015-05-03T22:00:00Z,30.6671,-87.9365,8.5,5.03,196.3,-9999.0,'1111122,1111122,1111122' 
DISL,ioos:station:DISL:MHPA:1,2015-05-03T22:30:00Z,30.6671,-87.9365,8.5,5.03,197.1,-9999.0,'1111122,1111122,1111122' 
DISL,ioos:station:DISL:MHPA:1,2015-05-03T23:00:00Z,30.6671,-87.9365,8.5,4.51,194.1,-9999.0,'1111122,1111122,1111122' 
DISL,ioos:station:DISL:MHPA:1,2015-05-03T23:30:00Z,30.6671,-87.9365,8.5,4.91,194.5,-9999.0,'1111122,1111122,1111122' 
DISL,ioos:station:DISL:MHPA:1,2015-05-04T00:00:00Z,30.6671,-87.9365,8.5,4.32,191.6,-9999.0,'1111122,1111122,1111122' 
DISL,ioos:station:DISL:MHPA:1,2015-05-04T00:30:00Z,30.6671,-87.9365,8.5,4.21,188.4,-9999.0,'1111122,1111122,1111122' 
DISL,ioos:station:DISL:MHPA:1,2015-05-04T01:00:00Z,30.6671,-87.9365,8.5,3.22,183.2,-9999.0,'1111122,1111122,1111122' 
DISL,ioos:station:DISL:MHPA:1,2015-05-04T01:30:00Z,30.6671,-87.9365,8.5,2.03,125.4,-9999.0,'1111122,1111122,1111122' 
DISL,ioos:station:DISL:MHPA:1,2015-05-04T02:00:00Z,30.6671,-87.9365,8.5,1.11,103.6,-9999.0,'1111122,1111122,1111122' 
DISL,ioos:station:DISL:MHPA:1,2015-05-04T02:30:00Z,30.6671,-87.9365,8.5,0.74,78.61,-9999.0,'1111122,1111122,1111122' 
DISL,ioos:station:DISL:MHPA:1,2015-05-04T03:00:00Z,30.6671,-87.9365,8.5,0.89,99.4,-9999.0,'1111122,1111122,1111122' 
DISL,ioos:station:DISL:MHPA:1,2015-05-04T03:30:00Z,30.6671,-87.9365,8.5,0.87,89.9,-9999.0,'1111122,1111122,1111122' 
DISL,ioos:station:DISL:MHPA:1,2015-05-04T04:00:00Z,30.6671,-87.9365,8.5,1.07,99.4,-9999.0,'1111122,1111122,1111122' 
DISL,ioos:station:DISL:MHPA:1,2015-05-04T04:30:00Z,30.6671,-87.9365,8.5,1.19,75.62,-9999.0,'1111122,1111122,1111122' 
DISL,ioos:station:DISL:MHPA:1,2015-05-04T05:00:00Z,30.6671,-87.9365,8.5,1.76,96.4,-9999.0,'1111122,1111122,1111122' 
DISL,ioos:station:DISL:MHPA:1,2015-05-04T05:30:00Z,30.6671,-87.9365,8.5,1.44,86.9,-9999.0,'1111122,1111122,1111122' 
DISL,ioos:station:DISL:MHPA:1,2015-05-04T06:00:00Z,30.6671,-87.9365,8.5,1.43,94.8,-9999.0,'1111122,1111122,1111122' 
DISL,ioos:station:DISL:MHPA:1,2015-05-04T06:30:00Z,30.6671,-87.9365,8.5,1.55,99.8,-9999.0,'1111122,1111122,1111122' 
DISL,ioos:station:DISL:MHPA:1,2015-05-04T07:00:00Z,30.6671,-87.9365,8.5,1.5,82.8,-9999.0,'1111122,1111122,1111122' 
DISL,ioos:station:DISL:MHPA:1,2015-05-04T07:30:00Z,30.6671,-87.9365,8.5,1.48,85.2,-9999.0,'1111122,1111122,1111122' 
DISL,ioos:station:DISL:MHPA:1,2015-05-04T08:00:00Z,30.6671,-87.9365,8.5,1.57,72.92,-9999.0,'1111122,1111122,1111122' 
DISL,ioos:station:DISL:MHPA:1,2015-05-04T08:30:00Z,30.6671,-87.9365,8.5,1.42,65.47,-9999.0,'1111122,1111122,1111122' 
DISL,ioos:station:DISL:MHPA:1,2015-05-04T09:00:00Z,30.6671,-87.9365,8.5,1.12,77.15,-9999.0,'1111122,1111122,1111122' 
DISL,ioos:station:DISL:MHPA:1,2015-05-04T09:30:00Z,30.6671,-87.9365,8.5,1.41,67.84,-9999.0,'1111122,1111122,1111122' 
DISL,ioos:station:DISL:MHPA:1,2015-05-04T10:00:00Z,30.6671,-87.9365,8.5,1.61,66.21,-9999.0,'1111122,1111122,1111122' 
DISL,ioos:station:DISL:MHPA:1,2015-05-04T10:30:00Z,30.6671,-87.9365,8.5,1.4,60.45,-9999.0,'1111122,1111122,1111122' 
DISL,ioos:station:DISL:MHPA:1,2015-05-04T11:00:00Z,30.6671,-87.9365,8.5,1.15,65.97,-9999.0,'1111122,1111122,1111122' 
DISL,ioos:station:DISL:MHPA:1,2015-05-04T11:30:00Z,30.6671,-87.9365,8.5,1.67,78.28,-9999.0,'1111122,1111122,1111122' 
DISL,ioos:station:DISL:MHPA:1,2015-05-04T12:00:00Z,30.6671,-87.9365,8.5,0.97,65.47,-9999.0,'1111122,1111122,1111122' 
DISL,ioos:station:DISL:MHPA:1,2015-05-04T12:30:00Z,30.6671,-87.9365,8.5,1.76,75.46,-9999.0,'1111122,1111122,1111122' 
DISL,ioos:station:DISL:MHPA:1,2015-05-04T13:00:00Z,30.6671,-87.9365,8.5,1.63,68.44,-9999.0,'1111122,1111122,1111122' 
DISL,ioos:station:DISL:MHPA:1,2015-05-04T13:30:00Z,30.6671,-87.9365,8.5,2.89,90.8,-9999.0,'1111122,1111122,1111122' 
DISL,ioos:station:DISL:MHPA:1,2015-05-04T14:00:00Z,30.6671,-87.9365,8.5,3.35,97.4,-9999.0,'1111122,1111122,1111122' 
DISL,ioos:station:DISL:MHPA:1,2015-05-04T14:30:00Z,30.6671,-87.9365,8.5,4.05,95.3,-9999.0,'1111122,1111122,1111122' 
DISL,ioos:station:DISL:MHPA:1,2015-05-04T15:00:00Z,30.6671,-87.9365,8.5,4.18,103.5,-9999.0,'1111122,1111122,1111122' 
DISL,ioos:station:DISL:MHPA:1,2015-05-04T15:30:00Z,30.6671,-87.9365,8.5,4.14,111.1,-9999.0,'1111122,1111122,1111122' 
DISL,ioos:station:DISL:MHPA:1,2015-05-04T16:00:00Z,30.6671,-87.9365,8.5,4.85,110.4,-9999.0,'1111122,1111122,1111122' 
DISL,ioos:station:DISL:MHPA:1,2015-05-04T16:30:00Z,30.6671,-87.9365,8.5,5.04,119.2,-9999.0,'1111122,1111122,1111122' 
DISL,ioos:station:DISL:MHPA:1,2015-05-04T17:00:00Z,30.6671,-87.9365,8.5,3.91,118.6,-9999.0,'1111122,1111122,1111122' 
DISL,ioos:station:DISL:MHPA:1,2015-05-04T17:30:00Z,30.6671,-87.9365,8.5,5.33,135.8,-9999.0,'1111122,1111122,1111122' 
DISL,ioos:station:DISL:MHPA:1,2015-05-04T18:00:00Z,30.6671,-87.9365,8.5,5.68,135.3,-9999.0,'1111122,1111122,1111122' 
DISL,ioos:station:DISL:MHPA:1,2015-05-04T18:30:00Z,30.6671,-87.9365,8.5,5.2,138.0,-9999.0,'1111122,1111122,1111122' 
DISL,ioos:station:DISL:MHPA:1,2015-05-04T19:00:00Z,30.6671,-87.9365,8.5,5.18,130.1,-9999.0,'1111122,1111122,1111122' 
DISL,ioos:station:DISL:MHPA:1,2015-05-04T19:30:00Z,30.6671,-87.9365,8.5,3.96,124.3,-9999.0,'1111122,1111122,1111122' 
DISL,ioos:station:DISL:MHPA:1,2015-05-04T20:00:00Z,30.6671,-87.9365,8.5,3.94,132.7,-9999.0,'1111122,1111122,1111122' 
DISL,ioos:station:DISL:MHPA:1,2015-05-04T20:30:00Z,30.6671,-87.9365,8.5,3.71,150.3,-9999.0,'1111122,1111122,1111122' 
DISL,ioos:station:DISL:MHPA:1,2015-05-04T21:00:00Z,30.6671,-87.9365,8.5,5.27,156.2,-9999.0,'1111122,1111122,1111122' 
DISL,ioos:station:DISL:MHPA:1,2015-05-04T21:30:00Z,30.6671,-87.9365,8.5,5.6,160.9,-9999.0,'1111122,1111122,1111122' 
DISL,ioos:station:DISL:MHPA:1,2015-05-04T22:00:00Z,30.6671,-87.9365,8.5,5.04,155.6,-9999.0,'1111122,1111122,1111122' 
DISL,ioos:station:DISL:MHPA:1,2015-05-04T22:30:00Z,30.6671,-87.9365,8.5,4.91,150.3,-9999.0,'1111122,1111122,1111122' 
DISL,ioos:station:DISL:MHPA:1,2015-05-04T23:00:00Z,30.6671,-87.9365,8.5,4.22,145.7,-9999.0,'1111122,1111122,1111122' 
DISL,ioos:station:DISL:MHPA:1,2015-05-04T23:30:00Z,30.6671,-87.9365,8.5,3.49,160.4,-9999.0,'1111122,1111122,1111122' 
DISL,ioos:station:DISL:MHPA:1,2015-05-05T00:00:00Z,30.6671,-87.9365,8.5,3.23,167.8,-9999.0,'1111122,1111122,1111122' 
DISL,ioos:station:DISL:MHPA:1,2015-05-05T00:30:00Z,30.6671,-87.9365,8.5,2.29,133.4,-9999.0,'1111122,1111122,1111122' 
DISL,ioos:station:DISL:MHPA:1,2015-05-05T01:00:00Z,30.6671,-87.9365,8.5,1.63,121.1,-9999.0,'1111122,1111122,1111122' 
DISL,ioos:station:DISL:MHPA:1,2015-05-05T01:30:00Z,30.6671,-87.9365,8.5,3.42,122.9,-9999.0,'1111122,1111122,1111122' 
DISL,ioos:station:DISL:MHPA:1,2015-05-05T02:00:00Z,30.6671,-87.9365,8.5,1.36,102.6,-9999.0,'1111122,1111122,1111122' 
DISL,ioos:station:DISL:MHPA:1,2015-05-05T02:30:00Z,30.6671,-87.9365,8.5,1.13,94.8,-9999.0,'1111122,1111122,1111122' 
DISL,ioos:station:DISL:MHPA:1,2015-05-05T03:00:00Z,30.6671,-87.9365,8.5,1.47,82.2,-9999.0,'1111122,1111122,1111122' 
DISL,ioos:station:DISL:MHPA:1,2015-05-05T03:30:00Z,30.6671,-87.9365,8.5,1.07,84.1,-9999.0,'1111122,1111122,1111122' 
DISL,ioos:station:DISL:MHPA:1,2015-05-05T04:00:00Z,30.6671,-87.9365,8.5,0.92,65.17,-9999.0,'1111122,1111122,1111122' 
DISL,ioos:station:DISL:MHPA:1,2015-05-05T04:30:00Z,30.6671,-87.9365,8.5,1.01,95.7,-9999.0,'1111122,1111122,1111122' 